Time,TemperatureF,DewpointF,PressureIn,WindDirection,WindDirectionDegrees,WindSpeedMPH,WindSpeedGustMPH,Humidity,HourlyPrecipIn,Conditions,Clouds,dailyrainin,SoftwareType,DateUTC
2013-06-03 00:03:00,57.0,53.0,-100.00,NNW,340,6.0,9.0,86,-99.99,,,-99.99,,2013-06-03 04:03:00,
2013-06-03 00:13:00,57.0,53.0,-100.00,NNW,335,6.0,7.0,86,-99.99,,,-99.99,,2013-06-03 04:13:00,
2013-06-03 00:23:00,57.0,53.0,-100.00,NW,320,4.0,7.0,86,-99.99,,,-99.99,,2013-06-03 04:23:00,
2013-06-03 00:33:00,57.0,53.0,-100.00,NNW,335,5.0,10.0,87,-99.99,,,-99.99,,2013-06-03 04:33:00,
2013-06-03 00:42:00,57.0,53.0,-100.00,NNW,335,4.0,7.0,87,-99.99,,,-99.99,,2013-06-03 04:42:00,
2013-06-03 00:53:00,57.0,53.0,-100.00,North,0,4.0,8.0,87,-99.99,,,-99.99,,2013-06-03 04:53:00,
2013-06-03 01:02:00,57.0,54.0,-100.00,North,350,3.0,4.0,87,-99.99,,,-99.99,,2013-06-03 05:02:00,
2013-06-03 01:12:00,57.0,53.0,-100.00,NNW,340,6.0,9.0,87,-99.99,,,-99.99,,2013-06-03 05:12:00,
2013-06-03 01:22:00,57.0,53.0,-100.00,NNW,340,6.0,9.0,87,-99.99,,,-99.99,,2013-06-03 05:22:00,
2013-06-03 01:32:00,57.0,53.0,-100.00,NNW,335,6.0,9.0,87,-99.99,,,-99.99,,2013-06-03 05:32:00,
2013-06-03 01:42:00,56.0,53.0,-100.00,North,0,4.0,9.0,86,-99.99,,,-99.99,,2013-06-03 05:42:00,
2013-06-03 01:52:00,56.0,52.0,-100.00,North,350,6.0,9.0,86,-99.99,,,-99.99,,2013-06-03 05:52:00,
2013-06-03 02:02:00,56.0,52.0,-100.00,North,0,6.0,9.0,85,-99.99,,,-99.99,,2013-06-03 06:02:00,
2013-06-03 02:12:00,56.0,52.0,-100.00,NNE,20,7.0,12.0,85,-99.99,,,-99.99,,2013-06-03 06:12:00,
2013-06-03 02:22:00,56.0,52.0,-100.00,NNE,15,11.0,14.0,84,-99.99,,,-99.99,,2013-06-03 06:22:00,
2013-06-03 02:32:00,56.0,52.0,-100.00,NNE,25,8.0,12.0,84,-99.99,,,-99.99,,2013-06-03 06:32:00,
2013-06-03 02:42:00,56.0,51.0,-100.00,NNE,25,9.0,14.0,84,-99.99,,,-99.99,,2013-06-03 06:42:00,
2013-06-03 02:52:00,55.0,51.0,-100.00,NNE,25,9.0,13.0,84,-99.99,,,-99.99,,2013-06-03 06:52:00,
2013-06-03 03:02:00,55.0,51.0,-100.00,North,10,6.0,12.0,84,-99.99,,,-99.99,,2013-06-03 07:02:00,
2013-06-03 03:12:00,55.0,50.0,-100.00,NNE,30,9.0,12.0,84,-99.99,,,-99.99,,2013-06-03 07:12:00,
2013-06-03 03:22:00,55.0,50.0,-100.00,North,5,7.0,13.0,84,-99.99,,,-99.99,,2013-06-03 07:22:00,
2013-06-03 03:32:00,55.0,50.0,-100.00,NNE,20,7.0,13.0,84,-99.99,,,-99.99,,2013-06-03 07:32:00,
2013-06-03 03:42:00,55.0,50.0,-100.00,NNE,20,7.0,13.0,84,-99.99,,,-99.99,,2013-06-03 07:42:00,
2013-06-03 03:52:00,54.0,50.0,-100.00,North,5,7.0,11.0,84,-99.99,,,-99.99,,2013-06-03 07:52:00,
2013-06-03 04:02:00,54.0,50.0,-100.00,North,5,6.0,10.0,84,-99.99,,,-99.99,,2013-06-03 08:02:00,
2013-06-03 04:12:00,54.0,49.0,-100.00,NNE,15,9.0,15.0,83,-99.99,,,-99.99,,2013-06-03 08:12:00,
2013-06-03 04:22:00,54.0,49.0,-100.00,North,5,6.0,11.0,83,-99.99,,,-99.99,,2013-06-03 08:22:00,
2013-06-03 04:32:00,54.0,49.0,-100.00,North,10,6.0,12.0,83,-99.99,,,-99.99,,2013-06-03 08:32:00,
2013-06-03 04:42:00,54.0,49.0,-100.00,NNW,345,7.0,10.0,83,-99.99,,,-99.99,,2013-06-03 08:42:00,
2013-06-03 04:52:00,53.0,49.0,-100.00,North,350,4.0,9.0,83,-99.99,,,-99.99,,2013-06-03 08:52:00,
2013-06-03 05:02:00,53.0,49.0,-100.00,North,355,5.0,7.0,84,-99.99,,,-99.99,,2013-06-03 09:02:00,
2013-06-03 05:12:00,53.0,49.0,-100.00,North,355,6.0,9.0,84,-99.99,,,-99.99,,2013-06-03 09:12:00,
2013-06-03 05:22:00,53.0,49.0,-100.00,North,0,4.0,9.0,84,-99.99,,,-99.99,,2013-06-03 09:22:00,
2013-06-03 05:33:00,53.0,48.0,-100.00,North,0,6.0,11.0,85,-99.99,,,-99.99,,2013-06-03 09:33:00,
2013-06-03 05:42:00,53.0,49.0,-100.00,North,0,4.0,9.0,85,-99.99,,,-99.99,,2013-06-03 09:42:00,
2013-06-03 05:52:00,53.0,49.0,-100.00,North,0,4.0,7.0,85,-99.99,,,-99.99,,2013-06-03 09:52:00,
2013-06-03 06:03:00,52.0,48.0,-100.00,North,0,6.0,11.0,86,-99.99,,,-99.99,,2013-06-03 10:03:00,
2013-06-03 06:12:00,52.0,48.0,-100.00,North,0,6.0,11.0,86,-99.99,,,-99.99,,2013-06-03 10:12:00,
2013-06-03 06:22:00,51.0,48.0,-100.00,North,5,7.0,14.0,86,-99.99,,,-99.99,,2013-06-03 10:22:00,
2013-06-03 06:33:00,51.0,47.0,-100.00,North,10,7.0,12.0,87,-99.99,,,-99.99,,2013-06-03 10:33:00,
2013-06-03 06:42:00,50.0,47.0,-100.00,North,0,4.0,12.0,88,-99.99,,,-99.99,,2013-06-03 10:42:00,
2013-06-03 06:53:00,50.0,47.0,-100.00,North,350,5.0,7.0,88,-99.99,,,-99.99,,2013-06-03 10:53:00,
2013-06-03 07:02:00,49.0,46.0,-100.00,North,5,6.0,8.0,89,-99.99,,,-99.99,,2013-06-03 11:02:00,
2013-06-03 07:12:00,49.0,47.0,-100.00,North,350,6.0,9.0,89,-99.99,,,-99.99,,2013-06-03 11:12:00,
2013-06-03 07:22:00,49.0,46.0,-100.00,NNE,15,7.0,11.0,89,-99.99,,,-99.99,,2013-06-03 11:22:00,
2013-06-03 07:32:00,49.0,47.0,-100.00,NNE,15,4.0,9.0,89,-99.99,,,-99.99,,2013-06-03 11:32:00,
2013-06-03 07:42:00,49.0,46.0,-100.00,North,10,7.0,9.0,89,-99.99,,,-99.99,,2013-06-03 11:42:00,
2013-06-03 07:52:00,49.0,46.0,-100.00,North,10,4.0,9.0,89,-99.99,,,-99.99,,2013-06-03 11:52:00,
2013-06-03 08:02:00,49.0,47.0,-100.00,North,10,4.0,7.0,89,-99.99,,,-99.99,,2013-06-03 12:02:00,
2013-06-03 08:12:00,50.0,47.0,-100.00,NNE,20,4.0,6.0,89,-99.99,,,-99.99,,2013-06-03 12:12:00,
2013-06-03 08:22:00,51.0,48.0,-100.00,North,5,3.0,9.0,89,-99.99,,,-99.99,,2013-06-03 12:22:00,
2013-06-03 08:32:00,51.0,48.0,-100.00,NNE,25,4.0,7.0,87,-99.99,,,-99.99,,2013-06-03 12:32:00,
2013-06-03 08:42:00,52.0,48.0,-100.00,NNE,25,4.0,6.0,86,-99.99,,,-99.99,,2013-06-03 12:42:00,
2013-06-03 08:52:00,52.0,48.0,-100.00,East,80,1.0,6.0,84,-99.99,,,-99.99,,2013-06-03 12:52:00,
2013-06-03 09:02:00,53.0,48.0,-100.00,North,0,2.0,6.0,83,-99.99,,,-99.99,,2013-06-03 13:02:00,
2013-06-03 09:12:00,54.0,48.0,-100.00,North,0,3.0,6.0,80,-99.99,,,-99.99,,2013-06-03 13:12:00,
2013-06-03 09:22:00,55.0,47.0,-100.00,ENE,70,2.0,7.0,75,-99.99,,,-99.99,,2013-06-03 13:22:00,
2013-06-03 09:32:00,55.0,46.0,-100.00,NNE,25,6.0,7.0,70,-99.99,,,-99.99,,2013-06-03 13:32:00,
2013-06-03 09:42:00,56.0,44.0,-100.00,NE,40,6.0,12.0,65,-99.99,,,-99.99,,2013-06-03 13:42:00,
2013-06-03 09:52:00,57.0,44.0,-100.00,NE,40,4.0,8.0,62,-99.99,,,-99.99,,2013-06-03 13:52:00,
2013-06-03 10:02:00,58.0,44.0,-100.00,NE,45,6.0,11.0,59,-99.99,,,-99.99,,2013-06-03 14:02:00,
2013-06-03 10:12:00,59.0,43.0,-100.00,East,80,7.0,11.0,55,-99.99,,,-99.99,,2013-06-03 14:12:00,
2013-06-03 10:22:00,58.0,42.0,-100.00,NE,45,6.0,11.0,54,-99.99,,,-99.99,,2013-06-03 14:22:00,
2013-06-03 10:32:00,60.0,42.0,-100.00,NNE,25,3.0,11.0,52,-99.99,,,-99.99,,2013-06-03 14:32:00,
2013-06-03 10:42:00,59.0,41.0,-100.00,NNE,25,8.0,12.0,51,-99.99,,,-99.99,,2013-06-03 14:42:00,
2013-06-03 10:52:00,59.0,41.0,-100.00,NE,50,7.0,10.0,49,-99.99,,,-99.99,,2013-06-03 14:52:00,
2013-06-03 11:02:00,59.0,41.0,-100.00,NNE,25,7.0,10.0,50,-99.99,,,-99.99,,2013-06-03 15:02:00,
2013-06-03 11:12:00,60.0,41.0,-100.00,NE,55,5.0,12.0,49,-99.99,,,-99.99,,2013-06-03 15:12:00,
2013-06-03 11:22:00,60.0,41.0,-100.00,NNE,30,9.0,11.0,48,-99.99,,,-99.99,,2013-06-03 15:22:00,
2013-06-03 11:33:00,60.0,41.0,-100.00,NE,55,6.0,11.0,48,-99.99,,,-99.99,,2013-06-03 15:33:00,
2013-06-03 11:43:00,61.0,40.0,-100.00,South,190,2.0,9.0,46,-99.99,,,-99.99,,2013-06-03 15:43:00,
2013-06-03 11:53:00,61.0,40.0,-100.00,North,0,4.0,9.0,46,-99.99,,,-99.99,,2013-06-03 15:53:00,
2013-06-03 12:03:00,62.0,39.0,-100.00,NE,55,3.0,9.0,42,-99.99,,,-99.99,,2013-06-03 16:03:00,
2013-06-03 12:13:00,62.0,39.0,-100.00,NE,55,1.0,7.0,41,-99.99,,,-99.99,,2013-06-03 16:13:00,
2013-06-03 12:23:00,62.0,39.0,-100.00,NE,55,1.0,7.0,41,-99.99,,,-99.99,,2013-06-03 16:23:00,
2013-06-03 12:33:00,64.0,41.0,-100.00,North,0,4.0,8.0,43,-99.99,,,-99.99,,2013-06-03 16:33:00,
2013-06-03 12:42:00,64.0,40.0,-100.00,NE,40,2.0,9.0,41,-99.99,,,-99.99,,2013-06-03 16:42:00,
2013-06-03 12:53:00,63.0,39.0,-100.00,North,0,2.0,10.0,41,-99.99,,,-99.99,,2013-06-03 16:53:00,
2013-06-03 13:02:00,63.0,43.0,-100.00,NNE,30,7.0,12.0,46,-99.99,,,-99.99,,2013-06-03 17:02:00,
2013-06-03 13:12:00,64.0,43.0,-100.00,ESE,110,4.0,7.0,45,-99.99,,,-99.99,,2013-06-03 17:12:00,
2013-06-03 13:22:00,64.0,42.0,-100.00,West,265,2.0,7.0,45,-99.99,,,-99.99,,2013-06-03 17:22:00,
2013-06-03 13:33:00,64.0,42.0,-100.00,ENE,70,3.0,7.0,45,-99.99,,,-99.99,,2013-06-03 17:33:00,
2013-06-03 13:42:00,65.0,43.0,-100.00,ENE,70,7.0,12.0,45,-99.99,,,-99.99,,2013-06-03 17:42:00,
2013-06-03 13:52:00,65.0,43.0,-100.00,NE,45,4.0,9.0,45,-99.99,,,-99.99,,2013-06-03 17:52:00,
2013-06-03 14:02:00,66.0,44.0,-100.00,South,170,4.0,6.0,45,-99.99,,,-99.99,,2013-06-03 18:02:00,
2013-06-03 14:12:00,65.0,44.0,-100.00,NNE,30,1.0,7.0,45,-99.99,,,-99.99,,2013-06-03 18:12:00,
2013-06-03 14:22:00,65.0,43.0,-100.00,NE,45,7.0,11.0,45,-99.99,,,-99.99,,2013-06-03 18:22:00,
2013-06-03 14:32:00,66.0,43.0,-100.00,NW,320,2.0,6.0,43,-99.99,,,-99.99,,2013-06-03 18:32:00,
2013-06-03 14:42:00,66.0,43.0,-100.00,SSE,150,5.0,7.0,43,-99.99,,,-99.99,,2013-06-03 18:42:00,
2013-06-03 14:52:00,66.0,44.0,-100.00,South,175,2.0,11.0,45,-99.99,,,-99.99,,2013-06-03 18:52:00,
2013-06-03 15:03:00,67.0,44.0,-100.00,NE,50,2.0,7.0,43,-99.99,,,-99.99,,2013-06-03 19:03:00,
2013-06-03 15:12:00,67.0,43.0,-100.00,WSW,240,4.0,7.0,40,-99.99,,,-99.99,,2013-06-03 19:12:00,
2013-06-03 15:22:00,68.0,44.0,-100.00,North,5,1.0,5.0,42,-99.99,,,-99.99,,2013-06-03 19:22:00,
2013-06-03 15:32:00,68.0,44.0,-100.00,North,5,1.0,5.0,42,-99.99,,,-99.99,,2013-06-03 19:32:00,
2013-06-03 15:42:00,68.0,44.0,-100.00,East,80,1.0,7.0,41,-99.99,,,-99.99,,2013-06-03 19:42:00,
2013-06-03 15:52:00,67.0,42.0,-100.00,WNW,285,8.0,12.0,39,-99.99,,,-99.99,,2013-06-03 19:52:00,
2013-06-03 16:02:00,68.0,42.0,-100.00,North,5,2.0,8.0,39,-99.99,,,-99.99,,2013-06-03 20:02:00,
2013-06-03 16:12:00,67.0,42.0,-100.00,North,355,4.0,7.0,39,-99.99,,,-99.99,,2013-06-03 20:12:00,
2013-06-03 16:22:00,69.0,42.0,-100.00,North,0,5.0,9.0,37,-99.99,,,-99.99,,2013-06-03 20:22:00,
2013-06-03 16:33:00,68.0,41.0,-100.00,NNE,15,6.0,12.0,37,-99.99,,,-99.99,,2013-06-03 20:33:00,
2013-06-03 16:42:00,68.0,41.0,-100.00,North,0,4.0,8.0,36,-99.99,,,-99.99,,2013-06-03 20:42:00,
2013-06-03 16:52:00,69.0,41.0,-100.00,North,0,4.0,10.0,37,-99.99,,,-99.99,,2013-06-03 20:52:00,
2013-06-03 17:02:00,68.0,41.0,-100.00,North,0,2.0,10.0,37,-99.99,,,-99.99,,2013-06-03 21:02:00,
2013-06-03 17:12:00,68.0,41.0,-100.00,West,270,2.0,10.0,37,-99.99,,,-99.99,,2013-06-03 21:12:00,
2013-06-03 17:22:00,69.0,42.0,-100.00,West,280,2.0,7.0,37,-99.99,,,-99.99,,2013-06-03 21:22:00,
2013-06-03 17:33:00,69.0,41.0,-100.00,West,280,5.0,11.0,37,-99.99,,,-99.99,,2013-06-03 21:33:00,
2013-06-03 17:43:00,69.0,42.0,-100.00,West,280,1.0,9.0,37,-99.99,,,-99.99,,2013-06-03 21:43:00,
2013-06-03 17:53:00,70.0,43.0,-100.00,WSW,250,1.0,9.0,37,-99.99,,,-99.99,,2013-06-03 21:53:00,
2013-06-03 18:03:00,70.0,43.0,-100.00,NE,55,4.0,7.0,37,-99.99,,,-99.99,,2013-06-03 22:03:00,
2013-06-03 18:12:00,69.0,42.0,-100.00,SE,145,1.0,10.0,37,-99.99,,,-99.99,,2013-06-03 22:12:00,
2013-06-03 18:22:00,69.0,42.0,-100.00,NW,320,1.0,6.0,37,-99.99,,,-99.99,,2013-06-03 22:22:00,
2013-06-03 18:33:00,69.0,41.0,-100.00,North,355,6.0,12.0,37,-99.99,,,-99.99,,2013-06-03 22:33:00,
2013-06-03 18:42:00,69.0,42.0,-100.00,North,0,2.0,8.0,37,-99.99,,,-99.99,,2013-06-03 22:42:00,
2013-06-03 18:52:00,69.0,42.0,-100.00,NNE,15,7.0,9.0,37,-99.99,,,-99.99,,2013-06-03 22:52:00,
2013-06-03 19:02:00,69.0,42.0,-100.00,NNW,340,6.0,9.0,37,-99.99,,,-99.99,,2013-06-03 23:02:00,
2013-06-03 19:12:00,69.0,42.0,-100.00,West,260,2.0,7.0,37,-99.99,,,-99.99,,2013-06-03 23:12:00,
2013-06-03 19:22:00,69.0,42.0,-100.00,West,275,6.0,9.0,37,-99.99,,,-99.99,,2013-06-03 23:22:00,
2013-06-03 19:32:00,70.0,43.0,-100.00,West,260,2.0,6.0,37,-99.99,,,-99.99,,2013-06-03 23:32:00,
2013-06-03 19:42:00,70.0,42.0,-100.00,WNW,285,3.0,6.0,37,-99.99,,,-99.99,,2013-06-03 23:42:00,
2013-06-03 19:52:00,69.0,42.0,-100.00,North,350,6.0,9.0,37,-99.99,,,-99.99,,2013-06-03 23:52:00,
2013-06-03 20:02:00,69.0,42.0,-100.00,NNE,25,2.0,10.0,38,-99.99,,,-99.99,,2013-06-04 00:02:00,
2013-06-03 20:12:00,69.0,43.0,-100.00,North,10,2.0,7.0,39,-99.99,,,-99.99,,2013-06-04 00:12:00,
2013-06-03 20:22:00,68.0,42.0,-100.00,North,0,4.0,6.0,39,-99.99,,,-99.99,,2013-06-04 00:22:00,
2013-06-03 20:32:00,68.0,42.0,-100.00,NNE,20,5.0,9.0,39,-99.99,,,-99.99,,2013-06-04 00:32:00,
2013-06-03 20:42:00,67.0,41.0,-100.00,NNE,15,4.0,7.0,39,-99.99,,,-99.99,,2013-06-04 00:42:00,
2013-06-03 20:52:00,67.0,42.0,-100.00,North,0,3.0,7.0,40,-99.99,,,-99.99,,2013-06-04 00:52:00,
2013-06-03 21:02:00,66.0,42.0,-100.00,North,5,2.0,5.0,41,-99.99,,,-99.99,,2013-06-04 01:02:00,
2013-06-03 21:12:00,65.0,42.0,-100.00,North,5,2.0,4.0,43,-99.99,,,-99.99,,2013-06-04 01:12:00,
2013-06-03 21:22:00,64.0,42.0,-100.00,North,355,2.0,3.0,43,-99.99,,,-99.99,,2013-06-04 01:22:00,
2013-06-03 21:32:00,64.0,42.0,-100.00,North,5,2.0,4.0,45,-99.99,,,-99.99,,2013-06-04 01:32:00,
2013-06-03 21:42:00,63.0,42.0,-100.00,North,0,2.0,3.0,46,-99.99,,,-99.99,,2013-06-04 01:42:00,
2013-06-03 21:52:00,63.0,42.0,-100.00,North,0,2.0,4.0,47,-99.99,,,-99.99,,2013-06-04 01:52:00,
2013-06-03 22:02:00,62.0,43.0,-100.00,North,0,1.0,3.0,48,-99.99,,,-99.99,,2013-06-04 02:02:00,
2013-06-03 22:12:00,62.0,44.0,-100.00,NNW,345,1.0,2.0,50,-99.99,,,-99.99,,2013-06-04 02:12:00,
2013-06-03 22:22:00,62.0,45.0,-100.00,North,355,1.0,2.0,53,-99.99,,,-99.99,,2013-06-04 02:22:00,
2013-06-03 22:32:00,61.0,45.0,-100.00,NNE,20,1.0,2.0,55,-99.99,,,-99.99,,2013-06-04 02:32:00,
2013-06-03 22:42:00,61.0,45.0,-100.00,NW,310,0.0,2.0,56,-99.99,,,-99.99,,2013-06-04 02:42:00,
2013-06-03 22:52:00,60.0,46.0,-100.00,North,0,1.0,2.0,59,-99.99,,,-99.99,,2013-06-04 02:52:00,
2013-06-03 23:02:00,60.0,48.0,-100.00,WNW,300,1.0,2.0,65,-99.99,,,-99.99,,2013-06-04 03:02:00,
2013-06-03 23:12:00,59.0,49.0,-100.00,NNW,335,1.0,2.0,70,-99.99,,,-99.99,,2013-06-04 03:12:00,
2013-06-03 23:22:00,59.0,50.0,-100.00,NW,320,1.0,2.0,73,-99.99,,,-99.99,,2013-06-04 03:22:00,
2013-06-03 23:32:00,58.0,51.0,-100.00,WNW,290,0.0,1.0,75,-99.99,,,-99.99,,2013-06-04 03:32:00,
2013-06-03 23:43:00,58.0,51.0,-100.00,WNW,295,1.0,1.0,77,-99.99,,,-99.99,,2013-06-04 03:43:00,
2013-06-03 23:53:00,57.0,51.0,-100.00,NW,310,1.0,2.0,79,-99.99,,,-99.99,,2013-06-04 03:53:00,